COSMOS 1934

Satellite information

Favourite Embed

Satellite Type and Status

PAYLOADIN ORBIT

Key statistics

Satellite COSMOS 1934 at a glance.

Uptime

13620

Days in orbit

Revolutions

≈ 13.8

Per day

Orbit

LEO

Low Earth Orbit

Inclination

83.0

Latest

Satellite identification and parameters

Extended collection of information and parameters for COSMOS 1934.

Object identification

Identified? True

Debris? False

Object name: COSMOS 1934

International designator: 1988-023A

Object number (NORAD): 18985

Object ID (CCSDS): 18985

Country: COMMONWEALTH OF INDEPENDENT STATES (CIS)

Current information (Y/N): Y

RCS size: LARGE

Orbital parameters

Period: 104.602 minutes

Inclination: 82.9554 deg

SMA: 7353.947 km

Apoapsis: 1006.458 km

Periapsis: 945.165 km

RAAN: 52.0438 deg

Eccentricy: 0.0041673

Argument of periapsis: 20.1208 deg

Mean anomaly: 340.158 deg

Mean motion: 13.76645317 rev/day

Mean motion (dot): 0.00000045 rev/day2

B* drag term: 0.000030519 1/REarth

Two-line elements (TLE)

Creation date: July 5, 2025, 2:36 p.m.

Reference frame: TEME

Reference center: EARTH

Epoch: July 5, 2025, 1:45 p.m. UTC

TLE line 0: 0 COSMOS 1934

TLE line 1: 1 18985U 88023A 25186.57348450 .00000045 00000-0 30519-4 0 9991

TLE line 2: 2 18985 82.9554 52.0438 0041673 20.1208 340.1580 13.76645317748577

Live tracking on map

Real-time ground track for satellite COSMOS 1934.

In-orbit conjunctions

A list of the most updated potential collisions computed for object COSMOS 1934.

Target Orbit TCA Probability of collision Miss distance Type
THOR ABLESTAR DEB LEO 2024-12-12 23:03:23 0.0001172131 544.0 (m) DEBRIS
COSMOS 1891 LEO 2024-11-14 03:17:26 0.0007673555 108.0 (m) PAYLOAD
FENGYUN 1C DEB SSO 2024-08-19 10:11:13 0.0001016388 880.0 (m) DEBRIS
FENGYUN 1C DEB SSO 2024-08-07 06:00:39 0.000115369 472.0 (m) DEBRIS

Associated space launch

Navigation satellite providing location information for the Tsiklon-B navigation system

COSMOS 1934 was lifted into orbit during the mission ‘Kosmos-3M | Parus 62’, on board a Kosmos-3M space rocket.

The launch took place on March 22, 1988, 2:07 p.m. from 132/1 (132L).

For more information about the launch, click the button.

Launch to space Kosmos-3M | Parus 62
Kosmos-3M | Parus 62

Agency: N/A

Status: Launch Successful

Launch date: March 22, 1988, 2:07 p.m. UTC

Rocket: Kosmos-3M

Launch pad: 132/1 (132L)

Location: Plesetsk Cosmodrome, Russian Federation

...

Latest news about this satellite

There are no fresh news available about this satellite. Check back as we update our databases every day.


Newsletter sign-up

Weekly statistics, charts and insights to help you stay on top of the space industry.